Weather reports worldwide

Advertisment
Almeria, Spain (8487): temperature & dewpoint: 10.07.2018 18:00:00 - 16.07.2018 18:00:00 (CEST)Almeria, Spain (8487): wind speed: 10.07.2018 18:00:00 - 16.07.2018 18:00:00 (CEST)Almeria, Spain (8487): wind direction: 10.07.2018 18:00:00 - 16.07.2018 18:00:00 (CEST)Almeria, Spain (8487): reduced air pressure: 10.07.2018 18:00:00 - 16.07.2018 18:00:00 (CEST)Almeria, Spain (8487): visibility: 10.07.2018 18:00:00 - 16.07.2018 18:00:00 (CEST)
Date & Time tt [°C] td [°C] ff [km/h] ff [kn] dd ppp [hPa] vv [km]
16.07.2018 18:00:00 - - - - - - -
16.07.2018 17:00:00 24,0 18,4 11 6 SSW 1016,8 40
16.07.2018 16:00:00 23,7 18,0 16 9 SSW 1017,1 -
16.07.2018 15:00:00 23,7 18,1 15 8 S 1017,5 -
16.07.2018 14:00:00 24,0 18,5 13 7 S 1017,9 40
16.07.2018 13:00:00 23,5 18,3 9 5 S 1018,0 -
16.07.2018 12:00:00 22,8 18,1 9 5 S 1018,2 -
16.07.2018 11:00:00 22,7 18,0 13 7 SSE 1018,2 40
16.07.2018 10:00:00 22,5 18,3 11 6 SSE 1018,0 -
16.07.2018 09:00:00 22,0 17,4 9 5 E 1017,7 -
16.07.2018 08:00:00 19,5 16,9 11 6 ENE 1017,4 30
16.07.2018 07:00:00 18,0 16,2 11 6 ENE 1016,7 -
16.07.2018 06:00:00 17,8 15,8 11 6 ENE 1016,0 -
16.07.2018 05:00:00 18,9 16,1 8 4 NE 1015,6 30
16.07.2018 04:00:00 19,6 16,3 11 6 SW 1015,2 -
16.07.2018 03:00:00 20,3 16,5 16 9 W 1015,0 -
16.07.2018 02:00:00 21,0 16,6 16 9 W 1015,2 -
16.07.2018 01:00:00 22,1 16,4 16 9 WSW 1015,1 -
16.07.2018 00:00:00 22,5 16,1 9 5 W 1014,7 -
15.07.2018 23:00:00 22,2 17,3 31 17 SW 1013,8 30
15.07.2018 22:00:00 23,3 16,1 28 15 WSW 1012,7 -
15.07.2018 21:00:00 25,8 15,5 34 18 SW 1012,1 -
15.07.2018 20:00:00 25,8 16,4 37 20 SW 1012,0 30
15.07.2018 19:00:00 25,6 17,5 39 21 SW 1012,1 -
15.07.2018 18:00:00 27,8 15,9 41 22 SW 1012,4 -
15.07.2018 17:00:00 25,4 18,0 18 10 ESE 1013,4 30
15.07.2018 16:00:00 24,3 18,2 8 4 SSE 1014,1 -
15.07.2018 15:00:00 24,2 18,6 18 10 S 1015,0 -
15.07.2018 14:00:00 25,0 18,9 18 10 SSW 1015,7 30
15.07.2018 13:00:00 24,9 19,3 18 10 SSW 1015,8 -
15.07.2018 12:00:00 24,6 20,0 9 5 S 1015,6 -
15.07.2018 11:00:00 24,4 19,9 11 6 S 1015,8 30
15.07.2018 10:00:00 23,8 19,9 9 5 SE 1016,0 -
15.07.2018 09:00:00 23,1 19,7 9 5 E 1016,1 -
15.07.2018 08:00:00 20,9 19,2 5 3 NE 1015,5 30
15.07.2018 07:00:00 20,6 19,5 4 2 NE 1015,4 -
15.07.2018 06:00:00 20,8 19,5 9 5 NNE 1014,9 -
15.07.2018 05:00:00 20,6 19,0 11 6 E 1015,0 40
15.07.2018 04:00:00 21,1 19,4 4 2 E 1015,4 -
15.07.2018 03:00:00 21,6 19,9 4 2 E 1015,7 -
15.07.2018 02:00:00 21,9 19,6 5 3 S 1016,2 -
15.07.2018 01:00:00 22,4 20,1 11 6 SW 1017,0 -
15.07.2018 00:00:00 22,3 19,8 13 7 W 1016,8 -
14.07.2018 23:00:00 22,4 19,9 8 4 SSW 1016,2 -
14.07.2018 22:00:00 22,8 19,8 8 4 E 1015,8 -
14.07.2018 21:00:00 23,5 20,3 5 3 SSW 1016,2 -
14.07.2018 20:00:00 24,8 20,1 5 3 SW 1015,5 35
14.07.2018 19:00:00 25,2 19,7 9 5 SSW 1015,3 -
14.07.2018 18:00:00 26,1 19,2 15 8 SW 1015,8 -
14.07.2018 17:00:00 26,3 19,7 9 5 SSW 1016,1 35
14.07.2018 16:00:00 27,0 19,5 8 4 S 1016,9 -
14.07.2018 15:00:00 26,0 20,1 11 6 SSW 1017,2 -
14.07.2018 14:00:00 26,0 20,3 11 6 SSW 1017,9 25
14.07.2018 13:00:00 25,3 21,5 16 9 SSW 1018,1 -
14.07.2018 12:00:00 25,2 21,0 13 7 SSW 1017,7 -
14.07.2018 11:00:00 24,5 20,6 9 5 SSW 1017,5 25
14.07.2018 10:00:00 24,5 20,7 11 6 SE 1017,5 -
14.07.2018 09:00:00 24,0 18,9 9 5 N 1017,1 -
14.07.2018 08:00:00 22,3 18,1 2 1 N 1017,0 30
14.07.2018 07:00:00 21,0 17,6 8 4 NE 1016,7 -
14.07.2018 06:00:00 21,3 18,4 0 0 N 1016,6 -
14.07.2018 05:00:00 22,0 17,4 5 3 ENE 1015,9 35
14.07.2018 04:00:00 22,6 18,1 5 3 ESE 1015,8 -
14.07.2018 03:00:00 23,1 19,6 4 2 NNW 1016,2 -
14.07.2018 02:00:00 22,8 20,3 5 3 ENE 1016,9 -
14.07.2018 01:00:00 23,1 21,3 9 5 SE 1017,0 -
14.07.2018 00:00:00 24,2 20,2 8 4 NE 1016,6 -
13.07.2018 23:00:00 23,6 20,9 4 2 ESE 1016,5 -
13.07.2018 22:00:00 25,2 20,4 4 2 ESE 1015,4 -
13.07.2018 21:00:00 25,2 20,6 4 2 SSE 1015,1 -
13.07.2018 20:00:00 25,7 20,9 9 5 SW 1014,8 20
13.07.2018 19:00:00 26,7 21,1 15 8 SW 1014,9 -
13.07.2018 18:00:00 26,8 21,2 15 8 SW 1015,2 -
13.07.2018 17:00:00 27,4 21,4 18 10 SW 1015,1 25
13.07.2018 16:00:00 27,7 21,6 16 9 SW 1015,3 -
13.07.2018 15:00:00 28,0 21,9 16 9 SW 1015,7 -
13.07.2018 14:00:00 27,5 21,5 18 10 SSW 1015,9 20
13.07.2018 13:00:00 26,9 20,9 18 10 SSW 1015,9 -
13.07.2018 12:00:00 25,7 21,2 16 9 SSW 1015,7 -
13.07.2018 11:00:00 26,1 21,3 8 4 SSW 1015,3 15
13.07.2018 10:00:00 25,6 21,3 5 3 S 1015,2 -
13.07.2018 09:00:00 24,8 20,9 4 2 S 1014,7 -
13.07.2018 08:00:00 22,8 21,1 0 0 N 1014,6 9
13.07.2018 07:00:00 22,4 21,0 4 2 W 1014,1 -
13.07.2018 06:00:00 22,3 20,8 2 1 N 1013,8 -
13.07.2018 05:00:00 22,8 20,7 8 4 E 1013,3 15
13.07.2018 04:00:00 23,3 20,6 5 3 N 1013,6 -
13.07.2018 03:00:00 22,5 21,0 5 3 E 1014,6 -
13.07.2018 02:00:00 22,7 21,5 8 4 SSW 1014,5 -
13.07.2018 01:00:00 23,1 21,2 4 2 E 1014,4 -
13.07.2018 00:00:00 23,5 21,2 4 2 W 1014,2 -
12.07.2018 23:00:00 23,8 21,3 4 2 WNW 1014,4 -
12.07.2018 22:00:00 23,6 21,1 4 2 SW 1014,4 -
12.07.2018 21:00:00 24,5 21,4 8 4 SSW 1013,4 -
12.07.2018 20:00:00 25,7 21,5 9 5 SSW 1012,6 20
12.07.2018 19:00:00 26,5 21,5 11 6 SSW 1012,5 -
12.07.2018 18:00:00 26,6 21,6 15 8 SSW 1012,6 -
12.07.2018 17:00:00 26,8 21,1 16 9 SSW 1012,9 20
12.07.2018 16:00:00 26,7 21,2 15 8 SSW 1013,4 -
12.07.2018 15:00:00 26,6 21,4 15 8 SSW 1013,8 -
12.07.2018 14:00:00 26,5 21,2 16 9 SSW 1014,1 25
12.07.2018 13:00:00 26,0 21,0 15 8 SW 1014,2 -
12.07.2018 12:00:00 25,7 20,5 13 7 S 1014,3 -
12.07.2018 11:00:00 25,6 19,9 13 7 SSW 1013,9 30
12.07.2018 10:00:00 24,2 19,3 9 5 SW 1014,0 -
12.07.2018 09:00:00 23,5 18,9 9 5 SSW 1013,9 -
12.07.2018 08:00:00 21,7 18,3 4 2 WNW 1013,5 30
12.07.2018 07:00:00 20,6 18,0 2 1 NE 1012,8 -
12.07.2018 06:00:00 20,2 18,1 11 6 ENE 1012,0 -
12.07.2018 05:00:00 20,8 18,4 9 5 NE 1011,6 30
12.07.2018 04:00:00 20,7 18,6 11 6 ENE 1011,8 -
12.07.2018 03:00:00 21,5 19,2 15 8 E 1011,9 -
12.07.2018 02:00:00 21,8 19,0 11 6 ENE 1011,9 -
12.07.2018 01:00:00 22,5 19,1 11 6 NE 1011,7 -
12.07.2018 00:00:00 23,3 19,5 9 5 ESE 1011,6 -
11.07.2018 23:00:00 24,4 18,1 5 3 ENE 1011,0 -
11.07.2018 22:00:00 24,4 18,5 11 6 S 1010,4 -
11.07.2018 21:00:00 25,3 18,7 11 6 SSW 1010,0 -
11.07.2018 20:00:00 25,1 19,2 9 5 S 1010,2 35
11.07.2018 19:00:00 25,2 20,2 13 7 SE 1011,0 -
11.07.2018 18:00:00 25,8 20,4 13 7 S 1011,5 -
11.07.2018 17:00:00 26,0 20,2 11 6 SSW 1012,2 15
11.07.2018 16:00:00 25,4 20,4 13 7 SSW 1012,6 -
11.07.2018 15:00:00 25,6 20,5 18 10 SSW 1013,3 -
11.07.2018 14:00:00 25,6 20,4 15 8 S 1013,8 15
11.07.2018 13:00:00 25,3 20,7 13 7 SSW 1014,2 -
11.07.2018 12:00:00 25,1 21,3 8 4 SSW 1014,1 -
11.07.2018 11:00:00 25,4 21,1 11 6 S 1014,0 15
11.07.2018 10:00:00 25,0 20,7 8 4 SSW 1013,6 -
11.07.2018 09:00:00 24,4 20,3 2 1 WNW 1013,3 -
11.07.2018 08:00:00 21,8 19,7 5 3 ENE 1013,0 9
11.07.2018 07:00:00 20,7 19,7 8 4 ENE 1012,9 -
11.07.2018 06:00:00 21,1 19,7 8 4 ENE 1012,6 -
11.07.2018 05:00:00 21,4 20,0 8 4 ENE 1012,8 15
11.07.2018 04:00:00 21,9 20,3 4 2 S 1012,8 -
11.07.2018 03:00:00 22,1 20,2 4 2 SW 1013,2 -
11.07.2018 02:00:00 22,4 20,8 9 5 WSW 1013,8 -
11.07.2018 01:00:00 22,7 21,0 9 5 SW 1014,1 -
11.07.2018 00:00:00 23,0 21,3 11 6 SW 1014,2 -
10.07.2018 23:00:00 23,1 20,8 8 4 SW 1014,0 -
10.07.2018 22:00:00 23,3 20,8 11 6 SSW 1013,6 -
10.07.2018 21:00:00 23,7 20,8 8 4 SSW 1013,5 -
10.07.2018 20:00:00 24,6 20,9 9 5 SSW 1013,7 12
10.07.2018 19:00:00 25,3 21,2 11 6 S 1014,0 -
10.07.2018 18:00:00 26,3 21,5 18 10 SSW 1014,4 -

tt = temperature
td = dewpoint
ff = wind speed
dd = wind direction
ppp = reduced air pressure
vv = visibility

Next stations